www.pogodaiklimat.ru

Погода и климат >> Архив погоды >> Китай >> Внутренняя Монголия >> Гуайцзыху


ПОГОДА в Гуайцзыху

  • Прогноз погоды в Гуайцзыху
  • Монитор погоды в Гуайцзыху

АРХИВ ПОГОДЫ в Гуайцзыху

Время (UTC), дата Ветер
(напр.,м/с)
 
Видим.   Явления Облачность Т
(С)
Тd
(С)
f
(%)
Тe
(С)
Тes
(С)
Комфортность P
(гПа)
Po
(гПа)
Тmin
(С)
Tmax
(С)
R
(мм)
R24
(мм)
S
(см)
09 18.06 В 2 30 км 9/9
[]
+34.7 -2.8 9 +31 +32 жарко 997.9 897.0
12 18.06 В 2 30 км 10/10
[]
+32.6 -1.7 11 +29 +29 жарко 997.9 896.4
18 18.06 Ю 2 30 км ?/? +27.7 +1.3 18 +26 +26 жарко 997.4 894.4 +35.3
21 18.06 Ю 7 27 км н/о +27.4 +2.5 20 +26 +26 жарко 997.5 894.3
00 19.06 Ю 7 30 км 10/10
[]
+28.0 +4.3 22 +27 +27 жарко 999.5 896.3
03 19.06 Ю 3 30 км 9/9
[]
+31.5 +4.3 18 +29 +31 жарко 999.8 897.7
06 19.06 В 10 15 км 9/9
[]
+33.4 +3.3 15 +31 +31 жарко 998.8 897.4 +26.1
09 19.06 В 9
{18}
12 км 9/9 2000 м
[]
+33.9 +2.7 14 +31 +31 жарко 997.5 896.4
12 19.06 В 8
{18}
21 км 9/9 2000 м
[]
+32.6 +0.6 13 +29 +29 жарко 997.7 896.2
18 19.06 В 4 30 км ?/? +22.6 +1.0 24 +22 +22 комфорт 1000.2 895.2 +34.6
21 19.06 В 4 30 км н/о +21.3 +2.1 28 +21 +21 комфорт 1000.4 894.9
00 20.06 В 3 30 км 9/9
[]
+23.4 +5.3 31 +24 +24 комфорт 1001.7 896.8
03 20.06 В 6 30 км 9/9
[]
+29.8 +4.4 20 +28 +29 жарко 1001.0 898.3
06 20.06 В 7 30 км 9/9
[]
+32.1 +3.1 16 +29 +30 жарко 1000.7 898.7 +19.4
09 20.06 З 7 18 км 9/9
[]
+31.3 +11.2 29 +31 +32 жарко 1000.0 897.8
12 20.06 З 8 19 км 9/9
[]
+26.5 +13.3 44 +28 +28 жарко 1002.6 898.8
18 20.06 С 1 9000 м слаб. дождь ?/? +21.5 +15.1 67 +25 +25 комфорт 1005.2 899.3 +33.4
21 20.06 Ю 3 14 км н/о +20.1 +17.3 84 +23 +23 комфорт 1004.6 898.3
00 21.06 В 2 14 км слаб. дождь 10/10
[]
+19.6 +16.8 84 +22 +22 комфорт 1007.0 900.2 0.1
03 21.06 В 3 15 км слаб. дождь 10/10
[]
+20.8 +17.0 79 +25 +25 комфорт 1007.2 900.8
06 21.06 В 7 н/о дождь 10/10
[]
+17.9 +16.8 93 +17 +17 1008.1 900.6 +17.8 7
09 21.06 В 7 4000 м слаб. дождь 10/10
[]
+18.2 +17.4 95 +18 +18 1007.1 899.8
12 21.06 В 4 2300 м слаб. дождь 10/10
[]
+18.9 +17.9 94 +20 +20 1007.2 900.2 9
18 21.06 В 3 2000 м в посл. час дождь ?/? +18.4 +18.1 98 +19 +19 1006.3 899.2 +21.5 53
21 21.06 Ю 4 22 км н/о +19.3 +17.1 87 +21 +21 комфорт 1005.8 899.1
00 22.06 Ю 6 22 км 9/9 2000 м
[]
+20.0 +17.2 84 +23 +23 комфорт 1005.8 899.3 0.1
03 22.06 З 7 30 км 9/9 2000 м
[]
+20.4 +16.6 79 +23 +24 комфорт 1006.5 900.1
06 22.06 З 6 26 км 9/9 2000 м
[]
+22.8 +16.4 67 +27 +28 душно 1004.9 899.5 +17.0
09 22.06 З 2 30 км 9/9 2000 м
[]
+24.7 +15.6 57 +28 +29 душно 1003.3 898.7
12 22.06 Ю 3 30 км 5/5 2000 м
[]
+23.9 +16.7 64 +27 +28 жарко 1002.4 897.6
18 22.06 З 2 21 км ?/? +19.4 +16.8 85 +22 +22 комфорт 1002.4 896.1 +25.5
21 22.06 Ю 3 26 км н/о +19.1 +16.3 84 +21 +21 комфорт 1002.1 895.7
00 23.06 З 6 18 км 1/1
[]
+20.0 +17.4 85 +23 +24 комфорт 1003.3 897.1
03 23.06 З 4 18 км 9/9
[]
+22.5 +18.1 76 +28 +29 душно 1003.7 898.3
06 23.06 З 4 27 км 9/9 2000 м
[]
+26.7 +17.2 56 +31 +32 душно 1002.2 898.3 +18.8
09 23.06 С 3 30 км 8/8 2000 м
[]
+29.0 +16.2 46 +32 +34 душно 1000.6 897.6
12 23.06 С 2 30 км 9/9
[]
+27.7 +16.0 49 +31 +31 душно 1000.8 896.8
18 23.06 С 1 14 км ?/? +22.1 +20.0 88 +28 +28 душно 1001.3 896.0 +29.6
21 23.06 З 1 12 км н/о +21.4 +18.4 83 +26 +26 душно 1001.2 895.7
00 24.06 З 1 12 км 9/9
[]
+22.2 +19.2 83 +28 +28 душно 1002.5 897.1
03 24.06 С 2 24 км 3/3
[]
+28.3 +17.5 52 +32 +43 душно 1002.3 898.9
06 24.06 З 3 30 км 5/5 1500 м
[]
+31.9 +12.2 30 +32 +40 жарко 1000.4 898.4 +20.4
09 24.06 С 8 6000 м пыльный позёмок 9/9
[]
+32.1 +9.6 25 +31 +32 жарко 999.6 897.7
12 24.06 С 2 26 км 9/9 2000 м
[]
+30.2 +11.7 32 +31 +31 жарко 1000.8 898.2
18 24.06 З 7 15 км ?/? +24.8 +7.9 34 +25 +25 комфорт 1003.5 900.7 +34.0
21 24.06 З 6 30 км н/о +22.4 +11.2 49 +25 +25 комфорт 1004.3 898.8
00 25.06 З 7 30 км 9/9
[]
+24.1 +7.3 34 +24 +24 комфорт 1005.3 901.9 0.0
03 25.06 З 7 16 км 6/6
[]
+27.8 -0.3 16 +25 +27 комфорт 1004.9 901.1
06 25.06 З 7 4400 м пыльный позёмок ясно +30.9 +0.3 14 +28 +33 жарко 1002.2 899.7 +21.8

 

Местоположение метеостанции Гуайцзыху (Внутренняя Монголия, Китай): широта 41.37 долгота 102.36 высота над уровнем моря 960 м.

В архиве по умолчанию представлена погода в Гуайцзыху за последнюю неделю. Архивные данные за месяц целиком и за предыдущие месяцы, начиная с января 2011 года, Вы можете получить, выбрав интересующий диапазон дат из раскрывающегося списка и нажав кнопку "Ввод!".


*Определитесь, кто Вы:
робот инопланетянин человек

Внимание! Время в таблицах - всемирное. Для получения местного времени необходимо прибавить поправку, которая равна 8 ч.

Смотрите также архив погоды в соседних городах и на ближайших метеорологических станциях:

Погода в Эдзин-Ци (Внутренняя Монголия, Китай) (126 км)
Погода в Баян Мод (Внутренняя Монголия, Китай) (192 км)
Погода в Шинэ Уса (Монголия) (246 км)
Погода в Даланзадгаде (Монголия) (298 км)
Погода в Миньцине (Цинхай, Китай) (311 км)
Погода в Чжанъе (Цинхай, Китай) (317 км)
Погода в Баинвендурьере (Внутренняя Монголия, Китай) (335 км)
Погода в Джартае (Внутренняя Монголия, Китай) (337 км)
Погода в Богде (Монголия) (365 км)
Погода в Цзюцюан (Ганьсу, Китай) (373 км)

Пояснения к столбцам:

Ветер - указаны скорость ветра в м/с - средняя за 10 мин, порывы в срок и между сроками (в фигурных скобках) и направление, откуда дует ветер: С - северный, СВ - северо-восточный, В - восточный, ЮВ - юго-восточный, Ю - южный, ЮЗ - юго-западный, З - западный, СЗ - северо-западный.
Видимость - горизонтальная дальность видимости в метрах или километрах. При видимости от 1 до 10 км при отсутствии осадков обычно наблюдается дымка, при ухудшении видимости до 1 км и менее - туман. В сухую погоду видимость может ухудшаться дымом, пылью или мглою.
Явления - указаны атмосферные явления, наблюдавшиеся в срок или в последний час перед сроком; фигурными скобками обозначены явления, наблюдавшиеся между сроками (за 1-3 часа до срока); квадратными скобками обозначены град или гололедные отложения с указанием их диаметра в мм.
Облачность - указаны через наклонную черту общая и нижняя облачность в баллах и высота нижней границы облаков в метрах; квадратными скобками обозначены формы облаков: Ci - перистые, Cs - перисто-слоистые, Cc - перисто-кучевые, Ac - высококучевые, As - высокослоистые, Sc - слоисто-кучевые, Ns - слоисто-дождевые, Cu - кучевые, Cb - кучево-дождевые. Подробнее классификацию облаков см. в Атласе облаков (PDF).
T - Температура воздуха - температура, измеренная на высоте 2 м над землей.
Td - Температура точки росы - температура, при понижении до которой содержащийся в воздухе водяной пар достигнет насыщения.
f - Относительная влажность воздуха - влажноcть воздуха, измеренная на высоте 2 м над землей.
Te - Эффективная температура - температура, которую ощущает одетый по сезону человек в тени. Характеристика душности погоды. При расчете учитывается влияние влажности воздуха и скорости ветра на теплоощущения человека.
Tes - Эффективная температура на солнце - температура, которую ощущает человек, с поправкой на солнечный нагрев. Характеристика знойности погоды. Зависит от высоты солнца над горизонтом, облачности и скорости ветра. Ночью, в пасмурную погоду, а также при ветре 12 м/с и более поправка равна нулю.
P - Атмосферное давление - приведенное к уровню моря атмосферное давление.
Po - Атмосферное давление - измеренное на уровне метеостанции атмосферное давление.
Tmin - Минимальная температура - минимум температуры воздуха на высоте 2 м над землей.
Tmax - Максимальная температура - максимум температуры воздуха на высоте 2 м над землей.
R - Количество осадков - Количество выпавших осадков за период времени, мм. При наведении курсора мыши на число - период времени, за который выпало указанное количество осадков.
R24 - Количество осадков - Количество выпавших осадков за 24 часа, мм.
S - Снежный покров - Высота снежного покрова, см. При наведении курсора мыши на число - состояние снежного покрова и степень покрытия местности в баллах.